[[{"header":{"parameterUnit":"m.s-1","parameterCategory":1,"la1":30.2991,"la2":30.254,"lo1":-89.0895,"lo2":-89.0444,"dy":0.0017,"dx":0.0017,"nx":28,"ny":28,"refTime":"2024-05-11T03:00:00:Z","depth":0,"parameterNumber":2,"parameterNumberName":"U-component_of_WINDS"},"data":[0,0,0,0,0,0,0,0,0,0,0,0,0,0,0,0,0,0,0,0,0,0,0,0,0,0,0,0,0,0,0,0,0,0,0,0,0,0,0,0,0,0,0,0,0,0,0,0,0,0,0,0,0,0,0,0,0,0,-0.0423,-0.0423,0,-0.0404,-0.0403,-0.0403,-0.0424,-0.0424,-0.0425,-0.0426,-0.0404,-0.0402,-0.0401,0,0,0,0,0,0,0,0,0,0,0,0,0,-0.0476,-0.0475,-0.0423,-0.0423,-0.0423,-0.0404,-0.0403,-0.0403,-0.0424,-0.0424,-0.0425,-0.0426,-0.0404,-0.0402,-0.0401,0,0,0,0,0,0,0,0,0,0,0,0,0,-0.0454,-0.0475,-0.0423,-0.0431,-0.0431,-0.0404,-0.0403,-0.0403,-0.0423,-0.0425,-0.0426,-0.0427,-0.0405,-0.0403,-0.0401,-0.0364,0,0,-0.0395,-0.0394,0,0,0,0,0,0,0,0,-0.0456,-0.0452,-0.043,-0.043,-0.0431,-0.0417,-0.0414,-0.039,-0.0423,-0.0426,-0.0426,-0.0427,-0.0407,-0.0405,-0.0399,-0.0363,-0.0362,-0.0394,-0.0393,-0.0392,-0.0392,0,0,0,0,0,0,0,-0.0457,-0.0453,-0.0415,-0.0429,-0.043,-0.0434,-0.0433,-0.0409,-0.041,-0.0426,-0.0427,-0.0425,-0.0407,-0.04,-0.0398,-0.0362,-0.0394,-0.0393,-0.0391,-0.0391,-0.0296,-0.0295,0,0,0,0,0,0,-0.0458,-0.0455,-0.0416,-0.0415,-0.0446,-0.0432,-0.043,-0.042,-0.041,-0.041,-0.0424,-0.0426,-0.0403,-0.0401,-0.0397,-0.0355,-0.0392,-0.039,-0.0389,-0.0297,-0.0296,-0.0294,0,0,0,0,0,0,-0.0459,-0.0454,-0.0417,-0.0435,-0.0431,-0.043,-0.0419,-0.0419,-0.0412,-0.0409,-0.0409,-0.0417,-0.0404,-0.04,-0.0373,-0.0354,-0.0389,-0.0388,-0.0299,-0.0297,-0.0295,-0.0268,0,0,0,0,0,0,-0.0461,-0.0455,-0.0441,-0.0435,-0.043,-0.0393,-0.0418,-0.0418,-0.0409,-0.0412,-0.0402,-0.0402,-0.0405,-0.0376,-0.0371,-0.0352,-0.0386,-0.0301,-0.0298,-0.0296,-0.0271,-0.0266,-0.0261,0,0,0,0,0,-0.0462,-0.0434,-0.0441,-0.0436,-0.0413,-0.0392,-0.0389,-0.0394,-0.0408,-0.0394,-0.0392,-0.0402,-0.0357,-0.0373,-0.0367,-0.0348,-0.0302,-0.0299,-0.0296,-0.0273,-0.0267,-0.0262,0,0,0,0,0,0,-0.0438,-0.0433,-0.0441,-0.0409,-0.0401,-0.0395,-0.0378,-0.0387,-0.0373,-0.0376,-0.0382,-0.038,-0.035,-0.0346,-0.0364,-0.0312,-0.0331,-0.0327,-0.0316,-0.031,-0.0305,-0.0307,-0.0384,0,0,0,0,0,-0.0429,-0.0413,-0.0409,-0.0382,-0.0378,-0.0379,-0.037,-0.0374,-0.0365,-0.0361,-0.0357,-0.0348,-0.0331,-0.032,-0.0305,-0.027,-0.0269,-0.0254,-0.0249,-0.0246,-0.0242,-0.0223,-0.0217,-0.0285,-0.0285,-0.0285,0,0,-0.041,-0.0406,-0.0395,-0.0377,-0.0371,-0.0354,-0.0376,-0.0356,-0.0343,-0.0358,-0.0332,-0.0329,-0.0318,-0.0287,-0.0273,-0.0283,-0.0223,-0.0242,-0.0239,-0.0237,-0.022,-0.0213,-0.0208,-0.0283,-0.0283,-0.0283,0,0,-0.0367,-0.0362,-0.034,-0.0333,-0.0324,-0.0325,-0.0319,-0.0312,-0.0311,-0.0285,-0.0296,-0.028,-0.0252,-0.0244,-0.0236,-0.0191,-0.02,-0.0185,-0.016,-0.0142,-0.0137,-0.0132,-0.0116,-0.011,-0.0182,-0.0182,-0.0182,0,-0.0345,-0.032,-0.0326,-0.0306,-0.0298,-0.0312,-0.0288,-0.0281,-0.0267,-0.0261,-0.0272,-0.0237,-0.0231,-0.0198,-0.0187,-0.018,-0.0174,-0.0187,-0.0137,-0.0133,-0.0128,-0.0113,-0.0107,-0.018,-0.018,-0.018,-0.018,0,-0.0293,-0.0276,-0.0258,-0.0245,-0.0235,-0.0213,-0.0216,-0.0204,-0.0209,-0.0209,-0.0182,-0.0175,-0.0159,-0.0151,-0.0156,-0.0119,-0.0126,-0.0137,-0.0156,-0.012,-0.0106,-0.01,-0.0178,-0.0178,-0.0179,-0.0179,0,0,-0.0235,-0.0226,-0.0219,-0.0214,-0.0205,-0.0191,-0.0169,-0.0154,-0.0145,-0.0134,-0.0116,-0.0092,-0.0103,-0.0094,-0.0098,-0.0082,-0.0046,-0.0095,-0.0095,-0.0086,-0.0006,0.0002,0.0009,-0.0052,-0.0051,-0.005,-0.0007,0,-0.0192,-0.0156,-0.0161,-0.0126,-0.011,-0.0123,-0.0104,-0.0096,-0.0095,-0.008,-0.0079,-0.0062,-0.0077,-0.0072,-0.0056,-0.0054,-0.003,-0.0057,-0.0035,-0.0034,-0.0038,0.0017,0.0025,0.0066,-0.0001,-0.0,0.0001,0,-0.0138,-0.0127,-0.0091,-0.0084,-0.0078,-0.0061,-0.0048,-0.0034,-0.0024,-0.0025,-0.0015,-0.0021,0.0001,-0.0019,0.0011,-0.0007,0.0002,0.0004,0.0006,0.0007,-0.0015,0.0019,0.0079,0.0084,0.0009,0.0009,0.0008,0,-0.01,-0.0075,-0.0051,-0.0045,-0.0037,-0.0025,-0.0021,-0.0013,-0.0004,0.0008,0.0014,0.0029,0.0037,0.0049,0.0047,0.0033,0.0078,0.0058,0.0079,0.0079,0.0088,0.0088,0.0149,0.0095,0.0095,0.0095,0.0095,0,-0.0052,-0.003,-0.0033,-0.0018,0.0007,0.0001,0.0027,0.0029,0.0036,0.0052,0.0043,0.0058,0.0055,0.007,0.0069,0.0094,0.0098,0.0099,0.0098,0.0099,0.0099,0.0104,0.0101,0.0096,0.0096,0.0096,0.0096,0,-0.0005,-0.0007,0.0019,0.0024,0.0026,0.0045,0.005,0.0064,0.0065,0.0085,0.0089,0.0091,0.0108,0.0107,0.0128,0.0127,0.0158,0.0154,0.0154,0.0153,0.0174,0.0171,0.024,0.0249,0.019,0.019,0.0191,0,0.0025,0.0042,0.0049,0.0058,0.0063,0.0079,0.0088,0.0084,0.0094,0.0105,0.0119,0.0135,0.0148,0.0177,0.018,0.0196,0.0192,0.0215,0.0194,0.0195,0.0192,0.019,0.0192,0.0219,0.022,0.022,0.0221,0,0.0078,0.0076,0.009,0.0103,0.0114,0.0124,0.0134,0.0142,0.0139,0.0151,0.0169,0.0179,0.0199,0.0216,0.0231,0.0236,0.0228,0.0227,0.0233,0.0234,0.0233,0.0233,0.0165,0.0226,0.0225,0.0225,0.0225,0.0224,0.0117,0.0131,0.0138,0.0154,0.016,0.0169,0.0183,0.0185,0.0199,0.0215,0.0212,0.0231,0.024,0.0259,0.0266,0.0281,0.0273,0.0281,0.0283,0.0285,0.0287,0.0231,0.0284,0.0284,0.0284,0.0284,0.0284,0,0.0169,0.0173,0.0187,0.02,0.0213,0.0204,0.0214,0.0225,0.0242,0.025,0.0263,0.0283,0.0299,0.0304,0.0319,0.0331,0.0328,0.0335,0.0334,0.0335,0.0294,0.0287,0.0338,0.0338,0.0338,0.0338,0.0338,0.0338,0.0198,0.0221,0.0221,0.0248,0.0252,0.027,0.0276,0.0285,0.0292,0.0314,0.0327,0.033,0.0337,0.0353,0.0368,0.0369,0.0375,0.0383,0.0383,0.0344,0.0338,0.0333,0.0327,0.0385,0.0385,0.0423,0.0423,0.0424]},{"header":{"parameterUnit":"m.s-1","parameterCategory":1,"la1":30.2991,"la2":30.254,"lo1":-89.0895,"lo2":-89.0444,"dy":0.0017,"dx":0.0017,"nx":28,"ny":28,"refTime":"2024-05-11T03:00:00:Z","depth":0,"parameterNumber":3,"parameterNumberName":"V-component_of_WINDS"},"data":[0,0,0,0,0,0,0,0,0,0,0,0,0,0,0,0,0,0,0,0,0,0,0,0,0,0,0,0,0,0,0,0,0,0,0,0,0,0,0,0,0,0,0,0,0,0,0,0,0,0,0,0,0,0,0,0,0,0,-1.1437,-1.1439,0,-1.1603,-1.1605,-1.1606,-1.1713,-1.1713,-1.1714,-1.1715,-1.1884,-1.1888,-1.1892,0,0,0,0,0,0,0,0,0,0,0,0,0,-1.1214,-1.1217,-1.1437,-1.1439,-1.1441,-1.1602,-1.1605,-1.1607,-1.1713,-1.1713,-1.1714,-1.1715,-1.1883,-1.1888,-1.1892,0,0,0,0,0,0,0,0,0,0,0,0,0,-1.1338,-1.1218,-1.1437,-1.1513,-1.1522,-1.1602,-1.1605,-1.1608,-1.1712,-1.1713,-1.1714,-1.1715,-1.1881,-1.1887,-1.1893,-1.191,0,0,-1.1911,-1.1913,0,0,0,0,0,0,0,0,-1.1331,-1.1346,-1.15,-1.1508,-1.1518,-1.1638,-1.1588,-1.1709,-1.1712,-1.164,-1.1715,-1.1716,-1.1802,-1.1814,-1.1843,-1.1918,-1.1925,-1.1911,-1.1915,-1.1917,-1.1919,0,0,0,0,0,0,0,-1.1322,-1.1339,-1.1503,-1.1502,-1.1513,-1.154,-1.1559,-1.1612,-1.1713,-1.1646,-1.1655,-1.1673,-1.1807,-1.1837,-1.1848,-1.1927,-1.1911,-1.1916,-1.192,-1.1922,-1.2026,-1.2025,0,0,0,0,0,0,-1.1301,-1.1332,-1.1497,-1.1508,-1.1425,-1.1543,-1.1564,-1.1599,-1.1713,-1.1731,-1.1672,-1.1677,-1.1827,-1.1841,-1.1854,-1.1882,-1.1917,-1.1923,-1.1926,-1.2026,-1.2025,-1.2025,0,0,0,0,0,0,-1.1296,-1.1315,-1.1491,-1.1422,-1.1446,-1.1546,-1.1584,-1.1601,-1.1632,-1.1732,-1.1751,-1.1684,-1.1828,-1.1846,-1.1895,-1.1889,-1.1926,-1.1931,-1.2027,-1.2026,-1.2025,-1.1937,0,0,0,0,0,0,-1.1289,-1.1312,-1.132,-1.1421,-1.145,-1.1529,-1.1583,-1.1604,-1.1642,-1.165,-1.1749,-1.1766,-1.183,-1.1886,-1.1901,-1.1898,-1.1935,-1.2028,-1.2027,-1.2025,-1.1941,-1.1933,-1.1926,0,0,0,0,0,-1.1281,-1.1288,-1.1319,-1.1339,-1.1461,-1.1528,-1.1544,-1.1618,-1.1641,-1.1649,-1.1714,-1.1763,-1.1887,-1.189,-1.1908,-1.1907,-1.2029,-1.2027,-1.2026,-1.1944,-1.1935,-1.1927,0,0,0,0,0,0,-1.1183,-1.1303,-1.1339,-1.1379,-1.1443,-1.1546,-1.1558,-1.1605,-1.1663,-1.1669,-1.1758,-1.1779,-1.182,-1.1869,-1.1869,-1.193,-1.1964,-1.1966,-1.1896,-1.1888,-1.1881,-1.1868,-1.194,0,0,0,0,0,-1.1166,-1.121,-1.1313,-1.1339,-1.1369,-1.1458,-1.149,-1.1541,-1.1611,-1.1638,-1.1706,-1.1772,-1.1826,-1.186,-1.1915,-1.1949,-1.1972,-1.1957,-1.1949,-1.1943,-1.1943,-1.1966,-1.196,-1.2019,-1.2019,-1.2019,0,0,-1.1131,-1.1202,-1.1225,-1.1321,-1.1376,-1.1421,-1.148,-1.1524,-1.1558,-1.1645,-1.1696,-1.1748,-1.1827,-1.1869,-1.1891,-1.1911,-1.1932,-1.1941,-1.1935,-1.1939,-1.1963,-1.1958,-1.1953,-1.2018,-1.2018,-1.2018,0,0,-1.1091,-1.1149,-1.1178,-1.1232,-1.1315,-1.1374,-1.1381,-1.1477,-1.1515,-1.1568,-1.1634,-1.1676,-1.1767,-1.1821,-1.1861,-1.1842,-1.189,-1.1858,-1.1819,-1.184,-1.1835,-1.1832,-1.1825,-1.1822,-1.1858,-1.1857,-1.1857,0,-1.1038,-1.1108,-1.1186,-1.1227,-1.1268,-1.1348,-1.1378,-1.1427,-1.1523,-1.1549,-1.157,-1.1687,-1.1746,-1.1802,-1.1797,-1.1826,-1.1837,-1.1847,-1.1829,-1.1827,-1.1824,-1.1819,-1.1817,-1.1853,-1.1854,-1.1854,-1.1854,0,-1.1038,-1.1085,-1.1098,-1.119,-1.1232,-1.1266,-1.1351,-1.1384,-1.1432,-1.1489,-1.1542,-1.1615,-1.1687,-1.1705,-1.1751,-1.1767,-1.1777,-1.1812,-1.1849,-1.1813,-1.181,-1.1809,-1.1847,-1.1848,-1.185,-1.1851,0,0,-1.0941,-1.1076,-1.1079,-1.1122,-1.122,-1.1258,-1.1297,-1.1367,-1.1394,-1.1458,-1.1493,-1.1569,-1.1603,-1.1647,-1.1701,-1.1719,-1.17,-1.1753,-1.1756,-1.1741,-1.1723,-1.1696,-1.1692,-1.1733,-1.1733,-1.1733,-1.1716,0,-1.0915,-1.0989,-1.1061,-1.1109,-1.1154,-1.1232,-1.1266,-1.133,-1.1384,-1.1431,-1.1492,-1.1544,-1.1584,-1.1612,-1.1633,-1.1698,-1.1698,-1.17,-1.1767,-1.1768,-1.1744,-1.1691,-1.1662,-1.1643,-1.1716,-1.1716,-1.1715,0,-1.0896,-1.0956,-1.1009,-1.1103,-1.1125,-1.1154,-1.1225,-1.1268,-1.1342,-1.1381,-1.1431,-1.1488,-1.1533,-1.1565,-1.1629,-1.1628,-1.166,-1.1696,-1.1697,-1.1706,-1.1739,-1.1698,-1.1639,-1.1636,-1.1714,-1.1714,-1.1714,0,-1.082,-1.0914,-1.0959,-1.0993,-1.1103,-1.1122,-1.1169,-1.1245,-1.1283,-1.1345,-1.137,-1.1437,-1.1473,-1.1523,-1.1597,-1.1613,-1.1654,-1.1691,-1.1687,-1.1685,-1.1692,-1.1691,-1.1637,-1.1712,-1.1712,-1.1712,-1.1712,0,-1.0784,-1.0813,-1.0926,-1.0953,-1.0988,-1.1071,-1.1103,-1.1157,-1.1224,-1.1263,-1.1334,-1.137,-1.1465,-1.1512,-1.157,-1.1615,-1.163,-1.1663,-1.1678,-1.1657,-1.1653,-1.1679,-1.1682,-1.1712,-1.1712,-1.1712,-1.1712,0,-1.0705,-1.0781,-1.0835,-1.0935,-1.0961,-1.0983,-1.1069,-1.1099,-1.1157,-1.1206,-1.1222,-1.1315,-1.1374,-1.1452,-1.1536,-1.1575,-1.1612,-1.1636,-1.1587,-1.1596,-1.1588,-1.1588,-1.1549,-1.1549,-1.1623,-1.1622,-1.1621,0,-1.0677,-1.0701,-1.0805,-1.0836,-1.0881,-1.093,-1.097,-1.1052,-1.109,-1.1177,-1.1196,-1.1261,-1.1316,-1.1407,-1.1482,-1.1546,-1.1572,-1.1555,-1.1583,-1.156,-1.1573,-1.157,-1.1573,-1.1547,-1.1546,-1.1545,-1.1544,0,-1.062,-1.0657,-1.071,-1.0777,-1.0822,-1.0879,-1.0939,-1.0961,-1.1057,-1.1096,-1.1157,-1.12,-1.1286,-1.1349,-1.1423,-1.1473,-1.1524,-1.1535,-1.1538,-1.1516,-1.1487,-1.1503,-1.1568,-1.1535,-1.1536,-1.1537,-1.1537,-1.1538,-1.0566,-1.0591,-1.0668,-1.0726,-1.078,-1.0835,-1.0867,-1.093,-1.0983,-1.1058,-1.1104,-1.1163,-1.1238,-1.1344,-1.1391,-1.1439,-1.1459,-1.1463,-1.1464,-1.1463,-1.1456,-1.1479,-1.1453,-1.1453,-1.1453,-1.1454,-1.1454,0,-1.0513,-1.0566,-1.0618,-1.07,-1.0746,-1.079,-1.086,-1.0895,-1.0946,-1.1011,-1.1065,-1.1135,-1.1197,-1.1277,-1.1344,-1.1368,-1.1393,-1.1383,-1.1382,-1.1392,-1.1434,-1.1425,-1.1361,-1.1361,-1.1361,-1.1361,-1.1361,-1.1361,-1.049,-1.0536,-1.0582,-1.0655,-1.0709,-1.0767,-1.0802,-1.0854,-1.0906,-1.0981,-1.1033,-1.1085,-1.1156,-1.123,-1.1289,-1.1311,-1.1332,-1.1315,-1.1344,-1.1381,-1.1389,-1.1397,-1.1389,-1.1318,-1.1318,-1.1298,-1.1298,-1.1298]}]]